Tracking 32963 objects as of 21-Jan-2026
HD Live streaming from Space Station
objects crossing your sky now

BRAZILSAT B2

Track BRAZILSAT B2 now!
BRAZILSAT B2 is classified as:


NORAD ID: 23536
Int'l Code: 1995-016A
Perigee: 36,061.8 km
Apogee: 36,112.0 km
Inclination: 11.9 °
Period: 1,451.1 minutes
Semi major axis: 42457 km
RCS: 7.5458 m2 (large)
Launch date: March 28, 1995
Source: Brazil (BRAZ)
Launch site: FRENCH GUIANA (FRGUI)

24 C-band; several X-band.
Your satellite tracking list
Your tracking list is empty




NASA's NSSDC Master Catalog

Two Line Element Set (TLE):
1 23536U 95016A   26020.52534520 -.00000014  00000-0  00000-0 0  9992
2 23536  11.8777  32.7319 0005905 236.7296 126.1961  0.99235053112636
Source of the keplerian elements: AFSPC